| time (UTC) | temp F | wind direction | speed MPH | gust MPH | rain 1hr in | rain 24hr in | rain mn in | humidity % | barometer mb |
| 20260508092124 | 59 | 175 | 0.0 | 0.0 | 0.00 | 0.00 | 0.00 | 92 | 1014.2 |
| 20260508091209 | 59 | 175 | 0.0 | 0.0 | 0.00 | 0.00 | 0.00 | 93 | 1014.2 |
| 20260508090136 | 59 | 175 | 0.0 | 0.0 | 0.00 | 0.00 | 0.00 | 93 | 1014.2 |
| 20260508085208 | 59 | 175 | 0.0 | 1.0 | 0.00 | 0.00 | 0.00 | 94 | 1014.1 |
| 20260508084224 | 59 | 175 | 0.0 | 1.0 | 0.00 | 0.00 | 0.00 | 95 | 1014.0 |
| 20260508082150 | 58 | 175 | 0.0 | 0.0 | 0.00 | 0.00 | 0.00 | 95 | 1014.3 |
| 20260508081207 | 58 | 175 | 0.0 | 0.0 | 0.00 | 0.00 | 0.00 | 94 | 1014.3 |
| 20260508080156 | 58 | 175 | 0.0 | 0.0 | 0.00 | 0.00 | 0.00 | 94 | 1014.3 |
| 20260508075210 | 58 | 175 | 0.0 | 1.0 | 0.00 | 0.00 | 0.00 | 94 | 1014.1 |
| 20260508074148 | 59 | 175 | 0.0 | 0.0 | 0.00 | 0.00 | 0.00 | 94 | 1014.4 |
| 20260508073126 | 59 | 175 | 0.0 | 0.0 | 0.00 | 0.00 | 0.00 | 94 | 1014.5 |
| 20260508072149 | 59 | 175 | 0.0 | 0.0 | 0.00 | 0.00 | 0.00 | 94 | 1014.5 |
| 20260508071208 | 59 | 175 | 0.0 | 0.0 | 0.00 | 0.00 | 0.00 | 94 | 1014.6 |
| 20260508070135 | 59 | 175 | 0.0 | 0.0 | 0.00 | 0.00 | 0.00 | 94 | 1014.9 |
| 20260508065143 | 59 | 175 | 0.0 | 0.0 | 0.00 | 0.00 | 0.00 | 94 | 1014.8 |
| 20260508064142 | 59 | 175 | 0.0 | 0.0 | 0.00 | 0.00 | 0.00 | 94 | 1014.9 |
| 20260508063130 | 59 | 175 | 0.0 | 0.0 | 0.00 | 0.00 | 0.00 | 94 | 1014.7 |
| 20260508062138 | 59 | 175 | 0.0 | 0.0 | 0.00 | 0.00 | 0.00 | 94 | 1014.7 |
| 20260508061124 | 59 | 175 | 0.0 | 0.0 | 0.00 | 0.00 | 0.00 | 94 | 1014.7 |
| 20260508060143 | 60 | 175 | 0.0 | 0.0 | 0.00 | 0.00 | 0.00 | 93 | 1014.4 |
| 20260508055132 | 60 | 175 | 0.0 | 0.0 | 0.00 | 0.00 | 0.00 | 93 | 1014.5 |
| 20260508054139 | 60 | 175 | 0.0 | 0.0 | 0.00 | 0.00 | 0.00 | 93 | 1014.6 |
| 20260508053127 | 60 | 175 | 0.0 | 1.0 | 0.00 | 0.00 | 0.00 | 92 | 1014.7 |
| 20260508052145 | 60 | 175 | 0.0 | 0.0 | 0.00 | 0.00 | 0.00 | 92 | 1014.7 |
| 20260508051133 | 61 | 175 | 0.0 | 0.0 | 0.00 | 0.00 | 0.00 | 92 | 1014.8 |
| 20260508050830 | 61 | 175 | 0.0 | 0.0 | 0.00 | 0.00 | 0.00 | 91 | 1014.9 |
| 20260508050133 | 61 | 175 | 0.0 | 0.0 | 0.00 | 0.00 | 0.00 | 91 | 1015.1 |
| 20260508045125 | 61 | 175 | 0.0 | 1.0 | 0.00 | 0.00 | 0.00 | 91 | 1015.4 |
| 20260508044151 | 61 | 175 | 0.0 | 0.0 | 0.00 | 0.00 | 0.00 | 91 | 1015.1 |
| 20260508043203 | 61 | 175 | 0.0 | 0.0 | 0.00 | 0.00 | 0.00 | 90 | 1015.3 |
| 20260508042218 | 61 | 175 | 0.0 | 1.0 | 0.00 | 0.00 | 0.00 | 90 | 1015.2 |
| 20260508040218 | 62 | 175 | 0.0 | 1.0 | 0.00 | 0.00 | 0.00 | 89 | 1015.2 |
| 20260508034156 | 62 | 175 | 0.0 | 1.0 | 0.00 | 0.00 | 0.00 | 88 | 1014.7 |
| 20260508033211 | 62 | 175 | 0.0 | 1.0 | 0.00 | 0.00 | 0.00 | 88 | 1015.0 |
| 20260508032219 | 62 | 175 | 0.0 | 1.0 | 0.00 | 0.00 | 0.00 | 88 | 1014.8 |
| 20260508031142 | 63 | 175 | 0.0 | 1.0 | 0.00 | 0.00 | 0.00 | 87 | 1015.2 |
| 20260508030218 | 63 | 175 | 0.0 | 1.0 | 0.00 | 0.00 | 0.00 | 87 | 1015.2 |
| 20260508024143 | 63 | 175 | 0.0 | 0.0 | 0.00 | 0.00 | 0.00 | 86 | 1014.9 |
| 20260508023212 | 63 | 175 | 0.0 | 0.0 | 0.00 | 0.00 | 0.00 | 85 | 1014.6 |
| 20260508022137 | 63 | 175 | 0.0 | 1.0 | 0.00 | 0.00 | 0.00 | 85 | 1014.2 |
| 20260508021209 | 64 | 175 | 0.0 | 1.0 | 0.00 | 0.00 | 0.00 | 84 | 1014.6 |
| 20260508020203 | 64 | 175 | 0.0 | 1.0 | 0.00 | 0.00 | 0.00 | 83 | 1014.7 |
| 20260508015239 | 64 | 175 | 0.0 | 1.0 | 0.00 | 0.00 | 0.00 | 82 | 1014.8 |
| 20260508014135 | 65 | 175 | 0.0 | 3.0 | 0.00 | 0.00 | 0.00 | 81 | 1014.8 |
| 20260508013219 | 65 | 175 | 0.0 | 2.0 | 0.00 | 0.00 | 0.00 | 81 | 1014.8 |
| 20260508012127 | 66 | 175 | 2.0 | 8.0 | 0.00 | 0.00 | 0.00 | 80 | 1014.5 |
| 20260508011204 | 66 | 173 | 3.0 | 8.0 | 0.00 | 0.00 | 0.00 | 79 | 1014.3 |
| 20260508010215 | 66 | 230 | 2.0 | 5.0 | 0.00 | 0.00 | 0.00 | 79 | 1015.5 |
| 20260508005221 | 66 | 164 | 0.0 | 4.0 | 0.00 | 0.00 | 0.00 | 78 | 1014.5 |
| 20260508003159 | 67 | 164 | 1.0 | 5.0 | 0.00 | 0.00 | 0.00 | 76 | 1014.6 |
| 20260508002129 | 67 | 148 | 1.0 | 3.0 | 0.00 | 0.00 | 0.00 | 77 | 1014.8 |
| 20260508001159 | 67 | 147 | 0.0 | 2.0 | 0.00 | 0.00 | 0.00 | 77 | 1014.1 |
| 20260508000219 | 68 | 147 | 1.0 | 2.0 | 0.00 | 0.00 | 0.00 | 76 | 1014.3 |
| 20260507235128 | 68 | 152 | 1.0 | 2.0 | 0.00 | 0.00 | 0.00 | 74 | 1014.6 |
| 20260507234159 | 69 | 153 | 0.0 | 0.0 | 0.00 | 0.00 | 0.00 | 74 | 1014.6 |
| 20260507233223 | 69 | 153 | 0.0 | 0.0 | 0.00 | 0.00 | 0.00 | 74 | 1014.8 |
| 20260507231154 | 69 | 153 | 0.0 | 0.0 | 0.00 | 0.00 | 0.00 | 72 | 1014.9 |
| 20260507230918 | 70 | 153 | 0.0 | 0.0 | 0.00 | 0.00 | 0.00 | 73 | 1014.8 |
| 20260507230214 | 70 | 153 | 0.0 | 0.0 | 0.00 | 0.00 | 0.00 | 71 | 1014.8 |
| 20260507225236 | 70 | 150 | 0.0 | 0.0 | 0.00 | 0.00 | 0.00 | 71 | 1014.8 |
| 20260507224135 | 69 | 150 | 0.0 | 0.0 | 0.00 | 0.00 | 0.00 | 71 | 1014.9 |
| 20260507223222 | 70 | 153 | 0.0 | 0.0 | 0.00 | 0.00 | 0.00 | 73 | 1014.7 |
| 20260507221153 | 70 | 153 | 0.0 | 3.0 | 0.00 | 0.00 | 0.00 | 70 | 1014.9 |
| 20260507215145 | 70 | 153 | 1.0 | 2.0 | 0.00 | 0.00 | 0.00 | 66 | 1015.0 |
| 20260507214220 | 71 | 153 | 0.0 | 3.0 | 0.00 | 0.00 | 0.00 | 67 | 1015.1 |
| 20260507213220 | 70 | 151 | 1.0 | 2.0 | 0.00 | 0.00 | 0.00 | 67 | 1014.8 |
| 20260507212144 | 71 | 150 | 2.0 | 4.0 | 0.00 | 0.00 | 0.00 | 65 | 1015.1 |
| 20260507211217 | 71 | 115 | 1.0 | 4.0 | 0.00 | 0.00 | 0.00 | 67 | 1015.2 |
| 20260507205200 | 70 | 107 | 1.0 | 3.0 | 0.00 | 0.00 | 0.00 | 69 | 1015.2 |
| 20260507204124 | 70 | 80 | 1.0 | 2.0 | 0.00 | 0.00 | 0.00 | 69 | 1015.5 |
| 20260507203210 | 70 | 80 | 0.0 | 5.0 | 0.00 | 0.00 | 0.00 | 69 | 1015.6 |
| 20260507202135 | 70 | 83 | 1.0 | 5.0 | 0.00 | 0.00 | 0.00 | 65 | 1015.6 |
| 20260507201206 | 70 | 5 | 0.0 | 4.0 | 0.00 | 0.00 | 0.00 | 67 | 1015.7 |
| 20260507200945 | 70 | 5 | 1.0 | 4.0 | 0.00 | 0.00 | 0.00 | 65 | 1015.8 |
| 20260507200147 | 70 | 84 | 1.0 | 4.0 | 0.00 | 0.00 | 0.00 | 68 | 1016.0 |
| 20260507195210 | 70 | 360 | 1.0 | 8.0 | 0.00 | 0.00 | 0.00 | 66 | 1015.9 |
| 20260507194228 | 70 | 59 | 2.0 | 8.0 | 0.00 | 0.00 | 0.00 | 68 | 1015.8 |
| 20260507193242 | 70 | 38 | 1.0 | 5.0 | 0.00 | 0.00 | 0.00 | 66 | 1015.8 |
| 20260507191149 | 69 | 95 | 1.0 | 7.0 | 0.00 | 0.00 | 0.00 | 68 | 1016.5 |
| 20260507190124 | 69 | 68 | 2.0 | 5.0 | 0.00 | 0.00 | 0.00 | 67 | 1016.7 |
| 20260507185215 | 69 | 12 | 1.0 | 3.0 | 0.00 | 0.00 | 0.00 | 65 | 1016.8 |
| 20260507184221 | 69 | 79 | 1.0 | 4.0 | 0.00 | 0.00 | 0.00 | 65 | 1016.8 |
| 20260507182146 | 69 | 67 | 2.0 | 6.0 | 0.00 | 0.00 | 0.00 | 66 | 1017.0 |
| 20260507181208 | 68 | 129 | 2.0 | 6.0 | 0.00 | 0.00 | 0.00 | 66 | 1017.1 |
| 20260507180125 | 68 | 82 | 2.0 | 4.0 | 0.00 | 0.00 | 0.00 | 67 | 1017.1 |
| 20260507175204 | 67 | 78 | 2.0 | 4.0 | 0.00 | 0.00 | 0.00 | 69 | 1017.2 |
| 20260507174209 | 66 | 35 | 1.0 | 5.0 | 0.00 | 0.00 | 0.00 | 70 | 1017.4 |
| 20260507173131 | 65 | 71 | 2.0 | 4.0 | 0.00 | 0.00 | 0.00 | 70 | 1017.4 |
| 20260507172205 | 65 | 94 | 2.0 | 5.0 | 0.00 | 0.00 | 0.00 | 71 | 1017.4 |
| 20260507171204 | 64 | 5 | 1.0 | 5.0 | 0.00 | 0.00 | 0.00 | 71 | 1017.5 |
| 20260507170144 | 64 | 111 | 3.0 | 6.0 | 0.00 | 0.00 | 0.00 | 71 | 1017.9 |
| 20260507165202 | 63 | 35 | 2.0 | 7.0 | 0.00 | 0.00 | 0.00 | 72 | 1017.5 |
| 20260507164219 | 63 | 59 | 3.0 | 7.0 | 0.00 | 0.00 | 0.00 | 71 | 1018.0 |
| 20260507163157 | 63 | 96 | 3.0 | 8.0 | 0.00 | 0.00 | 0.00 | 71 | 1018.1 |
| 20260507161156 | 63 | 121 | 3.0 | 8.0 | 0.00 | 0.00 | 0.00 | 70 | 1018.2 |
| 20260507154155 | 61 | 99 | 1.0 | 5.0 | 0.00 | 0.00 | 0.00 | 75 | 1018.5 |
| 20260507153147 | 61 | 23 | 3.0 | 9.0 | 0.00 | 0.00 | 0.00 | 73 | 1018.5 |
| 20260507152215 | 61 | 104 | 2.0 | 8.0 | 0.00 | 0.00 | 0.00 | 76 | 1018.5 |
| 20260507151149 | 61 | 355 | 2.0 | 8.0 | 0.00 | 0.00 | 0.00 | 74 | 1018.5 |
| 20260507150223 | 60 | 32 | 2.0 | 6.0 | 0.00 | 0.00 | 0.00 | 76 | 1018.7 |
| 20260507145140 | 60 | 68 | 1.0 | 9.0 | 0.00 | 0.00 | 0.00 | 77 | 1018.8 |
| 20260507144219 | 60 | 153 | 2.0 | 5.0 | 0.00 | 0.00 | 0.00 | 77 | 1018.8 |
| 20260507142152 | 59 | 55 | 2.0 | 5.0 | 0.00 | 0.00 | 0.00 | 80 | 1018.6 |
| 20260507141212 | 59 | 350 | 3.0 | 6.0 | 0.00 | 0.00 | 0.00 | 80 | 1018.6 |
| 20260507140916 | 59 | 322 | 2.0 | 5.0 | 0.00 | 0.00 | 0.00 | 80 | 1018.8 |
| 20260507140133 | 58 | 58 | 3.0 | 6.0 | 0.00 | 0.00 | 0.00 | 81 | 1018.8 |
| 20260507135219 | 58 | 31 | 2.0 | 8.0 | 0.00 | 0.00 | 0.00 | 84 | 1018.6 |
| 20260507134148 | 57 | 46 | 1.0 | 5.0 | 0.00 | 0.00 | 0.00 | 85 | 1018.7 |
| 20260507133127 | 56 | 99 | 2.0 | 5.0 | 0.00 | 0.00 | 0.00 | 87 | 1018.7 |
| 20260507132259 | 56 | 76 | 0.0 | 4.0 | 0.00 | 0.00 | 0.00 | 88 | 1018.7 |
| 20260507131138 | 55 | 344 | 1.0 | 9.0 | 0.00 | 0.00 | 0.00 | 88 | 1018.9 |
| 20260507130141 | 55 | 355 | 1.0 | 4.0 | 0.00 | 0.00 | 0.00 | 89 | 1018.7 |
| 20260507125206 | 54 | 17 | 1.0 | 6.0 | 0.00 | 0.00 | 0.00 | 90 | 1018.7 |
| 20260507124223 | 54 | 76 | 1.0 | 3.0 | 0.00 | 0.00 | 0.00 | 90 | 1018.8 |
| 20260507123136 | 54 | 327 | 0.0 | 4.0 | 0.00 | 0.00 | 0.00 | 90 | 1018.8 |
| 20260507122209 | 54 | 9 | 0.0 | 3.0 | 0.00 | 0.00 | 0.00 | 90 | 1018.5 |
| 20260507121140 | 53 | 5 | 0.0 | 2.0 | 0.00 | 0.00 | 0.00 | 89 | 1018.5 |
| 20260507115145 | 53 | 15 | 1.0 | 3.0 | 0.00 | 0.00 | 0.00 | 89 | 1018.0 |
| 20260507114221 | 53 | 31 | 1.0 | 3.0 | 0.00 | 0.00 | 0.00 | 89 | 1017.8 |
| 20260507113145 | 53 | 21 | 0.0 | 1.0 | 0.00 | 0.00 | 0.00 | 88 | 1017.8 |
| 20260507112219 | 53 | 21 | 0.0 | 2.0 | 0.00 | 0.00 | 0.00 | 88 | 1017.6 |
| 20260507111145 | 54 | 22 | 1.0 | 3.0 | 0.00 | 0.00 | 0.00 | 88 | 1017.4 |
| 20260507110221 | 54 | 46 | 1.0 | 5.0 | 0.00 | 0.00 | 0.00 | 88 | 1017.0 |
| 20260507105128 | 54 | 5 | 1.0 | 4.0 | 0.00 | 0.00 | 0.00 | 87 | 1016.5 |
| 20260507103240 | 54 | 40 | 1.0 | 3.0 | 0.00 | 0.00 | 0.00 | 86 | 1016.2 |
| 20260507102145 | 54 | 19 | 0.0 | 4.0 | 0.00 | 0.00 | 0.00 | 87 | 1016.1 |
| 20260507101221 | 54 | 43 | 0.0 | 3.0 | 0.00 | 0.00 | 0.00 | 87 | 1016.0 |
| 20260507100151 | 54 | 13 | 1.0 | 3.0 | 0.00 | 0.00 | 0.00 | 87 | 1015.8 |
| 20260507095128 | 54 | 30 | 0.0 | 5.0 | 0.00 | 0.00 | 0.00 | 87 | 1016.1 |
| 20260507094215 | 54 | 109 | 0.0 | 3.0 | 0.00 | 0.00 | 0.00 | 87 | 1015.7 |
| 20260507093238 | 54 | 17 | 1.0 | 4.0 | 0.00 | 0.00 | 0.00 | 87 | 1015.8 |